When you browse on this site, cookies collect data to enhance your experience and personalize the content and advertising you see.
Visit our Privacy Policy to learn more. By continuing to use the site, you agree to this use of cookies and data.
  • în România
  • Lista ţărilor
  • Pe 7 zile
  • Temperatura apei
  • Hartă satelitară
  • Meteo pe hartă
  • Widget-uri
  • user-avatar
    Intrare

    Meteo pe oră la Akhaltsikhe

    Astăzi, 25 Mai, Sâmbătă

    Timp Temperatura Precipitaţii Vânt Presiune Umiditate
    00:00 +14°C° 0.2 mm 2 m/s 649 mmHg 81%
    01:00 +14°C° 0.1 mm 2 m/s 648 mmHg 81%
    02:00 +14°C° 0.1 mm 2 m/s 648 mmHg 80%
    03:00 +13°C° 0 mm 2 m/s 648 mmHg 83%
    04:00 +13°C° 0 mm 2 m/s 648 mmHg 83%
    05:00 +14°C° 0 mm 2 m/s 648 mmHg 82%
    06:00 +14°C° 0 mm 2 m/s 648 mmHg 81%
    07:00 +16°C° 0.1 mm 2 m/s 648 mmHg 76%
    08:00 +18°C° 0.1 mm 2 m/s 649 mmHg 71%
    09:00 +21°C° 0 mm 2 m/s 649 mmHg 62%
    10:00 +24°C° 0 mm 3 m/s 649 mmHg 55%
    11:00 +25°C° 0 mm 4 m/s 650 mmHg 48%
    12:00 +27°C° 0 mm 5 m/s 650 mmHg 41%
    13:00 +25°C° 0.5 mm 4 m/s 650 mmHg 49%
    14:00 +23°C° 0.5 mm 4 m/s 650 mmHg 57%
    15:00 +21°C° 0 mm 3 m/s 649 mmHg 68%
    16:00 +19°C° 1.9 mm 3 m/s 649 mmHg 76%
    17:00 +17°C° 1.9 mm 3 m/s 649 mmHg 84%
    18:00 +14°C° 1.9 mm 3 m/s 649 mmHg 91%
    19:00 +14°C° 0.5 mm 2 m/s 649 mmHg 94%
    20:00 +13°C° 0.5 mm 2 m/s 649 mmHg 96%
    21:00 +13°C° 0.5 mm 1 m/s 649 mmHg 98%
    22:00 +12°C° 0 mm 1 m/s 649 mmHg 97%
    23:00 +11°C° 0 mm 0 m/s 649 mmHg 96%

    Mâine, 26 Mai, Duminică

    Timp Temperatura Precipitaţii Vânt Presiune Umiditate
    00:00 +11°C° 0 mm 0 m/s 649 mmHg 96%
    01:00 +10°C° 0 mm 0 m/s 649 mmHg 95%
    02:00 +10°C° 0 mm 0 m/s 649 mmHg 94%
    03:00 +10°C° 0 mm 1 m/s 648 mmHg 94%
    04:00 +11°C° 0 mm 1 m/s 649 mmHg 92%
    05:00 +12°C° 0 mm 1 m/s 649 mmHg 90%
    06:00 +12°C° 0 mm 1 m/s 649 mmHg 88%
    07:00 +14°C° 0.3 mm 1 m/s 649 mmHg 81%
    08:00 +16°C° 0.3 mm 1 m/s 650 mmHg 75%
    09:00 +19°C° 0.3 mm 1 m/s 650 mmHg 68%
    10:00 +18°C° 0.9 mm 2 m/s 650 mmHg 69%
    11:00 +18°C° 0.9 mm 2 m/s 650 mmHg 70%
    12:00 +18°C° 0.9 mm 2 m/s 650 mmHg 71%
    13:00 +17°C° 1.3 mm 2 m/s 650 mmHg 74%
    14:00 +16°C° 1.3 mm 3 m/s 650 mmHg 78%
    15:00 +14°C° 1.3 mm 3 m/s 649 mmHg 82%
    16:00 +15°C° 0.3 mm 2 m/s 650 mmHg 83%
    17:00 +14°C° 0.3 mm 2 m/s 650 mmHg 84%
    18:00 +14°C° 0.3 mm 2 m/s 650 mmHg 85%
    19:00 +13°C° 0.1 mm 1 m/s 650 mmHg 89%
    20:00 +12°C° 0.1 mm 1 m/s 651 mmHg 92%
    21:00 +11°C° 0.1 mm 1 m/s 651 mmHg 96%
    22:00 +11°C° 0 mm 1 m/s 651 mmHg 96%
    23:00 +10°C° 0 mm 1 m/s 651 mmHg 96%

    Poimâine, 27 Mai, Luni

    Timp Temperatura Precipitaţii Vânt Presiune Umiditate
    00:00 +10°C° 0 mm 1 m/s 651 mmHg 96%
    01:00 +9°C° 0 mm 1 m/s 651 mmHg 96%
    02:00 +9°C° 0 mm 1 m/s 651 mmHg 96%
    03:00 +8°C° 0 mm 1 m/s 650 mmHg 95%
    04:00 +9°C° 0 mm 1 m/s 651 mmHg 93%
    05:00 +9°C° 0 mm 1 m/s 651 mmHg 91%
    06:00 +9°C° 0 mm 1 m/s 651 mmHg 88%
    07:00 +12°C° 0 mm 1 m/s 652 mmHg 79%
    08:00 +14°C° 0 mm 1 m/s 652 mmHg 70%
    09:00 +16°C° 0 mm 1 m/s 653 mmHg 60%
    10:00 +18°C° 0 mm 1 m/s 653 mmHg 58%
    11:00 +18°C° 0 mm 2 m/s 653 mmHg 57%
    12:00 +19°C° 0 mm 2 m/s 653 mmHg 55%
    13:00 +19°C° 0.1 mm 2 m/s 653 mmHg 56%
    14:00 +19°C° 0.1 mm 2 m/s 653 mmHg 57%
    15:00 +19°C° 0.1 mm 2 m/s 653 mmHg 59%
    16:00 +18°C° 0.1 mm 2 m/s 652 mmHg 65%
    17:00 +17°C° 0.1 mm 2 m/s 652 mmHg 71%
    18:00 +16°C° 0.1 mm 2 m/s 652 mmHg 77%
    19:00 +14°C° 0 mm 1 m/s 652 mmHg 83%
    20:00 +13°C° 0 mm 1 m/s 652 mmHg 90%
    21:00 +10°C° 0 mm 0 m/s 652 mmHg 96%
    22:00 +10°C° 0 mm 0 m/s 652 mmHg 96%
    23:00 +9°C° 0 mm 0 m/s 652 mmHg 95%

    28 Mai, Marţi

    Timp Temperatura Precipitaţii Vânt Presiune Umiditate
    00:00 +10°C° 0 mm 1 m/s 652 mmHg 95%
    01:00 +10°C° 0 mm 1 m/s 652 mmHg 93%
    02:00 +9°C° 0 mm 1 m/s 652 mmHg 92%
    03:00 +9°C° 0 mm 1 m/s 652 mmHg 91%
    04:00 +9°C° 0 mm 1 m/s 652 mmHg 87%
    05:00 +10°C° 0 mm 1 m/s 652 mmHg 84%
    06:00 +11°C° 0 mm 1 m/s 652 mmHg 81%
    07:00 +14°C° 0 mm 1 m/s 653 mmHg 69%
    08:00 +18°C° 0 mm 1 m/s 654 mmHg 57%
    09:00 +19°C° 0 mm 0 m/s 654 mmHg 46%
    10:00 +22°C° 0 mm 1 m/s 654 mmHg 44%
    11:00 +23°C° 0 mm 1 m/s 654 mmHg 42%
    12:00 +24°C° 0 mm 1 m/s 654 mmHg 40%
    13:00 +24°C° 0.2 mm 1 m/s 654 mmHg 43%
    14:00 +23°C° 0.2 mm 2 m/s 654 mmHg 46%
    15:00 +23°C° 0.2 mm 2 m/s 653 mmHg 50%
    16:00 +21°C° 0.9 mm 2 m/s 653 mmHg 59%
    17:00 +20°C° 0.9 mm 2 m/s 652 mmHg 68%
    18:00 +18°C° 0.9 mm 2 m/s 652 mmHg 78%
    19:00 +16°C° 0.2 mm 1 m/s 652 mmHg 81%
    20:00 +14°C° 0.2 mm 1 m/s 652 mmHg 85%
    21:00 +12°C° 0.2 mm 1 m/s 652 mmHg 88%
    22:00 +12°C° 0 mm 1 m/s 651 mmHg 88%
    23:00 +11°C° 0 mm 1 m/s 651 mmHg 87%

    29 Mai, Miercuri

    Timp Temperatura Precipitaţii Vânt Presiune Umiditate
    00:00 +11°C° 0 mm 1 m/s 651 mmHg 87%
    01:00 +11°C° 0 mm 1 m/s 651 mmHg 86%
    02:00 +9°C° 0 mm 2 m/s 651 mmHg 86%
    03:00 +9°C° 0 mm 2 m/s 651 mmHg 85%
    04:00 +10°C° 0 mm 2 m/s 651 mmHg 85%
    05:00 +10°C° 0 mm 2 m/s 651 mmHg 84%
    06:00 +12°C° 0 mm 2 m/s 651 mmHg 83%
    07:00 +15°C° 0 mm 1 m/s 652 mmHg 71%
    08:00 +19°C° 0 mm 1 m/s 652 mmHg 60%
    09:00 +22°C° 0 mm 1 m/s 653 mmHg 48%
    10:00 +23°C° 0 mm 1 m/s 653 mmHg 44%
    11:00 +25°C° 0 mm 1 m/s 653 mmHg 40%
    12:00 +26°C° 0 mm 1 m/s 653 mmHg 36%
    13:00 +26°C° 0 mm 1 m/s 653 mmHg 37%
    14:00 +26°C° 0 mm 1 m/s 653 mmHg 37%
    15:00 +26°C° 0 mm 2 m/s 653 mmHg 38%
    16:00 +25°C° 0.3 mm 2 m/s 652 mmHg 46%
    17:00 +24°C° 0.3 mm 2 m/s 652 mmHg 54%
    18:00 +23°C° 0.3 mm 2 m/s 652 mmHg 62%
    19:00 +20°C° 0.2 mm 1 m/s 651 mmHg 70%
    20:00 +18°C° 0.2 mm 1 m/s 651 mmHg 77%
    21:00 +13°C° 0.2 mm 0 m/s 651 mmHg 85%
    22:00 +14°C° 0 mm 1 m/s 651 mmHg 85%
    23:00 +14°C° 0 mm 1 m/s 651 mmHg 85%

    30 Mai, Joi

    Timp Temperatura Precipitaţii Vânt Presiune Umiditate
    00:00 +13°C° 0 mm 1 m/s 651 mmHg 84%
    01:00 +13°C° 0 mm 1 m/s 650 mmHg 84%
    02:00 +13°C° 0 mm 1 m/s 650 mmHg 83%
    03:00 +12°C° 0 mm 2 m/s 650 mmHg 82%
    04:00 +13°C° 0 mm 2 m/s 650 mmHg 81%
    05:00 +14°C° 0 mm 2 m/s 651 mmHg 79%
    06:00 +14°C° 0 mm 1 m/s 651 mmHg 78%
    07:00 +18°C° 0 mm 1 m/s 651 mmHg 68%
    08:00 +21°C° 0 mm 1 m/s 652 mmHg 58%
    09:00 +23°C° 0 mm 0 m/s 653 mmHg 48%
    10:00 +25°C° 0 mm 1 m/s 653 mmHg 45%
    11:00 +26°C° 0 mm 1 m/s 653 mmHg 42%
    12:00 +27°C° 0 mm 2 m/s 652 mmHg 38%
    13:00 +27°C° 0.1 mm 2 m/s 652 mmHg 40%
    14:00 +26°C° 0.1 mm 2 m/s 652 mmHg 42%
    15:00 +26°C° 0.1 mm 2 m/s 652 mmHg 44%
    16:00 +25°C° 0.3 mm 2 m/s 652 mmHg 51%
    17:00 +24°C° 0.3 mm 2 m/s 651 mmHg 58%
    18:00 +23°C° 0.3 mm 2 m/s 651 mmHg 65%
    19:00 +20°C° 0.1 mm 1 m/s 651 mmHg 72%
    20:00 +18°C° 0.1 mm 1 m/s 651 mmHg 79%
    21:00 +13°C° 0.1 mm 0 m/s 650 mmHg 87%
    22:00 +14°C° 0 mm 1 m/s 650 mmHg 87%
    23:00 +14°C° 0 mm 1 m/s 650 mmHg 87%
    Arată mai mult